Notices

What's New in latest Release from April 7th, 2021:

- Updated Glossary, including Speed of Maximum Gust, and Total Hourly Precipitation

- Updated national and regional climate services offices contacts and prices information

- Addition of station inventory lists for 1981-2010, 1971-2000, and 1961-1990 Normals.

If you haven't already, please take our survey and provide feedback about our website: https://eccc.sondage-survey.ca/f/LanguageSelection.aspx?s=442ca660-fcf1-47c0-95a9-59707d6fd709

Hourly Data Report for December 07, 2020

FORT GOOD HOPE CS
NORTHWEST TERRITORIES
Current Station Operator: ECCC - MSC

66°14'32.044" N
128°38'39.081" W
81.70 m
2201450
71491
ZGH

Download Data

Hourly Data (December 2020)
Hourly Data Report for December 7, 2020
TIME
LST
Temp Definition
°C
Dew Point Definition
°C
Rel Hum Definition
%
Precip. Amount Definition
mm

Wind Dir Definition
10's deg

Wind Spd Definition
km/h
Visibility Definition
km
Stn Press Definition
kPa
Hmdx Definition


Wind Chill Definition


Weather Definition


00:00 -12.7 -14.4 87 0.5 5 4   98.78   -15 LegendNANA
01:00 -12.7 -14.4 87 0.6 1 4   98.74   -15 LegendNANA
02:00 -12.9 -14.6 87 0.2 34 2   98.71   -14 LegendNANA
03:00 -13.9 -15.6 86 0.0 29 4   98.75   -17 LegendNANA
04:00 -15.8 -17.9 84 0.0 22 8   98.74   -21 LegendNANA
05:00 -16.0 -18.0 84 0.0 24 6   98.72   -20 LegendNANA
06:00 -14.9 -16.7 86 0.0 26 6   98.73   -19 LegendNANA
07:00 -14.8 -16.7 85 0.4 25 7   98.74   -20 LegendNANA
08:00 -14.6 -16.4 86 0.2 26 11   98.78   -21 LegendNANA
09:00 -14.4 -16.4 85 0.2 24 9   98.82   -20 LegendNANA
10:00 -14.6 -16.5 85 0.3 25 14   98.86   -22 LegendNANA
11:00 -14.5 -16.5 85 0.3 26 12   98.91   -21 LegendNANA
12:00 -14.6 -16.6 85 0.5 26 11   98.95   -21 LegendNANA
13:00 -14.7 -16.7 85 0.2 26 12   98.99   -22 LegendNANA
14:00 -14.9 -17.1 83 0.1 27 12   99.03   -22 LegendNANA
15:00 -15.2 -17.5 83 0.0 26 9   99.05   -21 LegendNANA
16:00 -16.1 -18.5 82 0.0 32 5   99.07   -20 LegendNANA
17:00 -17.5 -19.8 83 0.0 27 3   99.14   -20 LegendNANA
18:00 -17.1 -19.3 83 0.0 30 4   99.11   -20 LegendNANA
19:00 -20.3 -23.1 79 0.0   0   99.14     LegendNANA
20:00 -18.9 -21.1 83 0.0 19 2   99.14   -21 LegendNANA
21:00 -17.4 -19.6 83 0.0   0   99.14     LegendNANA
22:00 -17.3 -19.5 83 0.0 25 1   99.16   -18 LegendNANA
23:00 -17.0 -19.2 83 0.0   0   99.14     LegendNANA

Notes on Data Quality.

Legend

  • E = Estimated
  • M = Missing
  • NA = Not Available*
  • [empty] = Indicates an unobserved value
Date modified: